AWQ666 WIII-WAPP

Flight info

Callsign AWQ666
Flight time N/A
Altitude 35000
Route WIII/25R N0466F350 CA2D CA T5 SASKA SASK1F WAPP/22
Aircraft A320/M-SDE2E3FGHIRWXY/LB1

Departure

Time N/A
Airport Soekarno-Hatta International Airport (WIII)

Arrival

Time 2026-05-01 08:23
Airport Pattimura International Airport (WAPP)
Time Latitude Longitude Altitude Speed Heading
2026-05-01 07:23 -4.49128 122.97404 34878 ft 461 kts 82°
2026-05-01 07:24 -4.47621 123.06867 34878 ft 460 kts 82°
2026-05-01 07:24 -4.46621 123.13192 34873 ft 459 kts 82°
2026-05-01 07:25 -4.45616 123.19510 34874 ft 459 kts 82°
2026-05-01 07:25 -4.44602 123.25827 34865 ft 459 kts 81°
2026-05-01 07:26 -4.43595 123.32149 34860 ft 459 kts 82°
2026-05-01 07:26 -4.42599 123.38431 34854 ft 459 kts 81°
2026-05-01 07:27 -4.42002 123.44823 34846 ft 458 kts 89°
2026-05-01 07:27 -4.41890 123.51175 34846 ft 458 kts 89°
2026-05-01 07:28 -4.41773 123.57561 34844 ft 458 kts 89°
2026-05-01 07:28 -4.41650 123.63955 34846 ft 459 kts 89°
2026-05-01 07:29 -4.41528 123.70348 34844 ft 459 kts 90°
2026-05-01 07:29 -4.41408 123.76754 34846 ft 459 kts 89°
2026-05-01 07:30 -4.41285 123.83115 34844 ft 459 kts 89°
2026-05-01 07:30 -4.41163 123.89510 34846 ft 459 kts 89°
2026-05-01 07:31 -4.41038 123.95909 34848 ft 459 kts 89°
2026-05-01 07:32 -4.40732 124.11911 34849 ft 459 kts 89°
2026-05-01 07:33 -4.40552 124.21511 34854 ft 459 kts 90°
2026-05-01 07:33 -4.40366 124.31113 34853 ft 459 kts 89°
2026-05-01 07:34 -4.40186 124.40114 34852 ft 459 kts 89°
2026-05-01 07:35 -4.40058 124.46189 34857 ft 459 kts 89°
2026-05-01 07:35 -4.39928 124.52583 34855 ft 459 kts 89°
2026-05-01 07:36 -4.39810 124.58975 34857 ft 459 kts 89°
2026-05-01 07:36 -4.39684 124.65366 34857 ft 459 kts 89°
2026-05-01 07:37 -4.39495 124.74952 34860 ft 459 kts 89°
2026-05-01 07:37 -4.39375 124.81344 34861 ft 459 kts 89°
2026-05-01 07:38 -4.39244 124.87736 34859 ft 459 kts 89°
2026-05-01 07:39 -4.39042 124.97325 34859 ft 459 kts 89°
2026-05-01 07:39 -4.38854 125.06912 34860 ft 459 kts 89°
2026-05-01 07:40 -4.38721 125.13301 34858 ft 459 kts 89°
2026-05-01 07:40 -4.38590 125.19655 34861 ft 459 kts 89°
2026-05-01 07:41 -4.38460 125.26085 34864 ft 459 kts 89°
2026-05-01 07:42 -4.38242 125.35644 34866 ft 459 kts 89°
2026-05-01 07:42 -4.38104 125.42038 34865 ft 459 kts 89°
2026-05-01 07:43 -4.37976 125.48432 34866 ft 459 kts 89°
2026-05-01 07:43 -4.37774 125.58027 34861 ft 459 kts 89°
2026-05-01 07:44 -4.37527 125.70163 34862 ft 458 kts 89°
2026-05-01 07:45 -4.37384 125.76547 34858 ft 458 kts 89°
2026-05-01 07:45 -4.37249 125.82922 34855 ft 458 kts 89°
2026-05-01 07:46 -4.37110 125.89303 34855 ft 458 kts 89°
2026-05-01 07:47 -4.36909 125.98873 34858 ft 458 kts 89°
2026-05-01 07:47 -4.36769 126.05246 34854 ft 457 kts 89°
2026-05-01 07:48 -4.36562 126.14812 34851 ft 458 kts 89°
2026-05-01 07:48 -4.36424 126.21160 34854 ft 458 kts 89°
2026-05-01 07:49 -4.36204 126.30739 34856 ft 459 kts 89°
2026-05-01 07:50 -4.36065 126.37132 34856 ft 459 kts 89°
2026-05-01 07:50 -4.35851 126.46733 34857 ft 459 kts 89°
2026-05-01 07:51 -4.35710 126.53140 34858 ft 460 kts 89°
2026-05-01 07:52 -4.35496 126.62751 34860 ft 460 kts 89°
2026-05-01 07:52 -4.34507 126.69072 34864 ft 462 kts 72°
2026-05-01 07:53 -4.30440 126.77818 34865 ft 462 kts 64°
2026-05-01 07:53 -4.27632 126.83573 34863 ft 462 kts 64°
2026-05-01 07:55 -4.20571 126.98021 34106 ft 461 kts 64°
2026-05-01 07:55 -4.17721 127.03834 32171 ft 467 kts 64°
2026-05-01 07:56 -4.13381 127.12708 29029 ft 478 kts 65°
2026-05-01 07:56 -4.10471 127.18679 26755 ft 481 kts 65°
2026-05-01 07:57 -4.08995 127.21694 25604 ft 483 kts 64°
2026-05-01 07:57 -4.06064 127.27664 24026 ft 472 kts 65°
2026-05-01 07:58 -4.03198 127.33521 22367 ft 463 kts 65°
2026-05-01 07:58 -4.00401 127.39233 20918 ft 451 kts 64°
2026-05-01 07:59 -3.97664 127.44825 19536 ft 443 kts 64°
2026-05-01 07:59 -3.94982 127.50318 18241 ft 435 kts 64°
2026-05-01 08:00 -3.89773 127.60947 15855 ft 414 kts 64°
2026-05-01 08:01 -3.86026 127.68601 14253 ft 402 kts 64°
2026-05-01 08:01 -3.84816 127.71078 13717 ft 400 kts 64°
2026-05-01 08:01 -3.83624 127.73551 13120 ft 396 kts 67°
2026-05-01 08:02 -3.81755 127.78680 11942 ft 388 kts 71°
2026-05-01 08:02 -3.80847 127.81215 11316 ft 385 kts 70°
2026-05-01 08:03 -3.79076 127.86137 10769 ft 360 kts 71°
2026-05-01 08:03 -3.78247 127.88443 10648 ft 345 kts 71°
2026-05-01 08:03 -3.77014 127.91883 10461 ft 323 kts 71°
2026-05-01 08:04 -3.75549 127.95966 10232 ft 300 kts 70°
2026-05-01 08:04 -3.74167 127.99816 9869 ft 290 kts 71°
2026-05-01 08:05 -3.72840 128.03520 9509 ft 276 kts 71°
2026-05-01 08:05 -3.72277 128.05348 9162 ft 274 kts 81°
2026-05-01 08:05 -3.72161 128.07244 8809 ft 272 kts 91°
2026-05-01 08:06 -3.72218 128.11016 8088 ft 270 kts 91°
2026-05-01 08:06 -3.72264 128.14750 7375 ft 266 kts 91°
2026-05-01 08:07 -3.72684 128.18291 7001 ft 245 kts 116°
2026-05-01 08:07 -3.75136 128.20414 7008 ft 241 kts 163°
2026-05-01 08:08 -3.76803 128.20544 7006 ft 244 kts 187°
2026-05-01 08:08 -3.79622 128.18734 7009 ft 253 kts 237°
2026-05-01 08:09 -3.80274 128.15315 7010 ft 257 kts 269°
2026-05-01 08:09 -3.80267 128.13525 7005 ft 257 kts 270°
2026-05-01 08:09 -3.80240 128.11732 7005 ft 258 kts 270°
2026-05-01 08:10 -3.80033 128.08155 7001 ft 257 kts 288°
2026-05-01 08:10 -3.77750 128.05583 7006 ft 253 kts 340°
2026-05-01 08:11 -3.74401 128.05690 7006 ft 244 kts 31°
2026-05-01 08:11 -3.72346 128.08214 7002 ft 238 kts 78°
2026-05-01 08:12 -3.72167 128.11505 7005 ft 238 kts 91°
2026-05-01 08:12 -3.72194 128.13159 7006 ft 238 kts 92°
2026-05-01 08:12 -3.72254 128.16466 7006 ft 237 kts 93°
2026-05-01 08:13 -3.72610 128.18059 7005 ft 236 kts 118°
2026-05-01 08:13 -3.73694 128.19280 7009 ft 238 kts 147°
2026-05-01 08:13 -3.76904 128.19496 7007 ft 247 kts 206°
2026-05-01 08:14 -3.78182 128.18356 7005 ft 252 kts 237°
2026-05-01 08:14 -3.78700 128.16690 7007 ft 255 kts 268°
2026-05-01 08:14 -3.78687 128.14903 7007 ft 258 kts 270°
2026-05-01 08:14 -3.78666 128.13110 7005 ft 258 kts 270°
2026-05-01 08:15 -3.78650 128.11313 7005 ft 258 kts 270°
2026-05-01 08:15 -3.77870 128.07910 7002 ft 255 kts 313°
2026-05-01 08:15 -3.76424 128.06937 7003 ft 251 kts 346°
2026-05-01 08:16 -3.74741 128.06857 7006 ft 246 kts 17°
2026-05-01 08:16 -3.73261 128.07631 7009 ft 240 kts 47°
2026-05-01 08:16 -3.72380 128.09011 7006 ft 236 kts 76°
2026-05-01 08:16 -3.72225 128.10634 6994 ft 235 kts 92°
2026-05-01 08:17 -3.72268 128.12266 6697 ft 234 kts 92°
2026-05-01 08:17 -3.72312 128.13892 6350 ft 233 kts 92°
2026-05-01 08:17 -3.72356 128.15500 5888 ft 230 kts 91°
2026-05-01 08:17 -3.72399 128.17084 5462 ft 224 kts 92°
2026-05-01 08:18 -3.72440 128.18655 5355 ft 228 kts 92°
2026-05-01 08:18 -3.72426 128.21811 5108 ft 229 kts 78°
2026-05-01 08:19 -3.70406 128.24190 4852 ft 239 kts 23°
2026-05-01 08:19 -3.68763 128.24388 4555 ft 242 kts 354°
2026-05-01 08:19 -3.67143 128.23875 3977 ft 252 kts 329°
2026-05-01 08:19 -3.65953 128.22618 3322 ft 251 kts 294°
2026-05-01 08:20 -3.65662 128.20940 2692 ft 245 kts 259°
2026-05-01 08:20 -3.66295 128.19440 2377 ft 224 kts 227°
2026-05-01 08:20 -3.67371 128.18376 2019 ft 213 kts 220°
2026-05-01 08:20 -3.68381 128.17353 1709 ft 200 kts 233°
2026-05-01 08:21 -3.68851 128.16109 1466 ft 190 kts 263°
2026-05-01 08:21 -3.68743 128.14787 1014 ft 194 kts 284°
2026-05-01 08:21 -3.68332 128.13525 727 ft 184 kts 285°
2026-05-01 08:21 -3.68293 128.12332 693 ft 165 kts 255°
2026-05-01 08:22 -3.68768 128.11341 567 ft 152 kts 233°
2026-05-01 08:22 -3.69433 128.10540 320 ft 147 kts 225°
2026-05-01 08:22 -3.70156 128.09833 97 ft 144 kts 225°
2026-05-01 08:22 -3.70810 128.09181 36 ft 101 kts 225°
2026-05-01 08:23 -3.71089 128.08902 34 ft 23 kts 237°
2026-05-01 08:23 -3.71069 128.08839 33 ft 8 kts 318°
2026-05-01 08:23 -3.71035 128.08808 34 ft 6 kts 316°
2026-05-01 08:23 -3.71004 128.08779 35 ft 5 kts 320°
2026-05-01 08:24 -3.70941 128.08766 35 ft 13 kts
2026-05-01 08:24 -3.70853 128.08767 36 ft 12 kts 360°
2026-05-01 08:24 -3.70777 128.08767 36 ft 10 kts
2026-05-01 08:24 -3.70711 128.08775 36 ft 11 kts 30°
2026-05-01 08:25 -3.70694 128.08844 36 ft 9 kts 79°
2026-05-01 08:25 -3.70655 128.08857 36 ft 3 kts
2026-05-01 08:25 -3.70637 128.08857 36 ft 3 kts
2026-05-01 08:25 -3.70628 128.08857 36 ft 0 kts